{"data":{"norad_id":58787,"intl_designator":"2024-012A","name":"STARLINK-31189","alt_names":[],"object_type":"PAYLOAD","status":"ACTIVE","operator":null,"country":"US","launch_date":"2024-01-15","launch_site_code":"AFETR","launch_vehicle":null,"mission":null,"orbit_class":"UNKNOWN","rcs_meters":null,"size_class":null,"mass_kg":null,"dimensions":null,"purposes":["comms"],"wikipedia_slug":null,"has_3d_model":false,"image_url":null,"decayed_at":null,"tle_current":{"epoch":"2026-09-20T00:58:20.407008Z","epoch_age_seconds":192294,"freshness":"STALE","line1":"1 58787U 24012A   26263.04051397  .00001064  00000+0  48182-4 0  9999","line2":"2 58787  43.0006 147.2953 0001089 264.9936  95.0791 15.27575941150966","mean_motion":15.27575941,"eccentricity":0.0001089,"inclination_deg":43.0006,"raan_deg":147.2953,"arg_perigee_deg":264.9936,"mean_anomaly_deg":95.0791,"bstar":4.8182e-5,"rev_number":15096,"period_min":94.266999194641,"perigee_km":482.31406568334,"apogee_km":483.80843466223,"semimajor_km":6861.1982501728,"source":"CELESTRAK","updated_at":"2026-09-21T09:00:33.978732Z"}}}